Regional Weather Roundup
Issued by NWS

Home | Current Version | Previous Version | Graphics & Text | Print | Product List | Glossary On
Versions: 1 2 3 4 5 6 7 8 9 10 11 12 13 14 15 16 17 18 19 20 21 22 23 24 25 26 27 28 29 30 31 32 33 34 35 36 37 38 39 40 41 42 43 44 45 46 47 48 49 50
000
ASUS43 KMPX 281401
RWRMN
WEATHER ROUNDUP FOR MINNESOTA
NATIONAL WEATHER SERVICE TWIN CITIES/CHANHASSEN MN
900 AM CDT SUN MAY 28 2017


NOTE: "FAIR" INDICATES FEW OR NO CLOUDS BELOW 12,000 FEET WITH NO
SIGNIFICANT WEATHER AND/OR OBSTRUCTIONS TO VISIBILITY. N/A MEANS
CURRENT SKY AND/OR WEATHER CONDITIONS ARE NOT AVAILABLE.

MNZ060>063-068>070-281500-
   Twin Cities Metro

CITY           SKY/WX    TMP DP  RH WIND       PRES   REMARKS
TWIN CITIES    MOSUNNY   63  45  51 NW16      29.74R
ST PAUL        SUNNY     63  48  58 W13       29.74R
CRYSTAL        SUNNY     61  43  51 W16G26    29.73R
LAKEVILLE      SUNNY     61  46  59 W16G22    29.75S
EDEN PRAIRIE   SUNNY     62  45  53 W13G23    29.74R
SOUTH ST PAUL  SUNNY     63  46  55 W7        29.74R
LAKE ELMO      FAIR      61  50  67 W12G20    29.74R
$$
MNZ001>005-007-008-013>017-022>024-027-028-281500-
   Northwest Minnesota

CITY           SKY/WX    TMP DP  RH WIND       PRES   REMARKS
BEMIDJI        PTSUNNY   53  49  86 W10       29.70R
HALLOCK        LGT RAIN  54  52  94 NW12      29.73S
ROSEAU         CLOUDY    55  48  76 NW13      29.69R
WARROAD        CLOUDY    57  52  82 W8        29.68S
THIEF RVR FALL CLOUDY    52  48  87 NW10      29.74R
CROOKSTON      CLOUDY    55  52  88 NW13G18   29.75S
FOSSTON        MOSUNNY   55  48  76 NW10      29.73S
DETROIT LAKES  MOSUNNY   55  48  76 NW12      29.76R
MOORHEAD       CLOUDY    55  46  71 NW13      29.78R
PARK RAPIDS    LGT RAIN  55  47  74 NW13      29.72R
MAHNOMEN       PTSUNNY   56  50  82 NW13      29.73S
$$
MNZ006-009>011-018-025>026-281500-
   North Central Minnesota

CITY           SKY/WX    TMP DP  RH WIND       PRES   REMARKS
BAUDETTE       MOSUNNY   60  49  66 NW13      29.65R
FLAG ISLAND    PTSUNNY   54  50  87 NW12      29.65R
INTL FALLS     CLOUDY    54  47  77 SW6       29.64R
WASKISH        CLOUDY    54  48  82 NW8       29.68R
BIG FORK       CLOUDY    55  48  76 W6        29.66S
LONGVILLE      CLOUDY    52  48  87 W8        29.70R
GRAND RAPIDS   CLOUDY    51  48  89 W5        29.70S
CRANE LAKE     CLOUDY    54  52  94 CALM      29.65S
ORR            PTSUNNY   57  48  72 W3        29.62F
COOK           CLOUDY    55  50  82 W9        29.65S
WALKER         CLOUDY    51  47  87 W9        29.70S
$$
MNZ012-019>021-037-281500-
   Northeast Minnesota

CITY           SKY/WX    TMP DP  RH WIND       PRES   REMARKS
DULUTH         CLOUDY    54  51  90 W3        29.66S
ELY            LGT RAIN  52  48  87 S6        29.67R
HIBBING        CLOUDY    57  51  80 W9        29.65S
EVELETH        CLOUDY    58  51  79 W6        29.66S
DULUTH HARBOR  CLOUDY    55  52  88 SW8       29.67R
TWO HARBORS    CLOUDY    55  50  82 CALM      29.65R
SILVER BAY     LGT RAIN  55  52  88 CALM      29.64S
GRAND MARAIS     N/A     52  42  69 NE5       29.67R
G MARAIS ARPRT PTSUNNY   57  45  62 S7        29.68R
$$
MNZ029>031-032-039>041-046>048-054>057-064-281500-
   West Central Minnesota

CITY           SKY/WX    TMP DP  RH WIND       PRES   REMARKS
FERGUS FALLS   MOSUNNY   55  48  76 NW15      29.76S
WHEATON        PTSUNNY   61  45  55 W13       29.81R
MORRIS         SUNNY     61  48  63 NW13      29.78S
ALEXANDRIA     SUNNY     58  48  69 NW13      29.77S
ELBOW LAKE     FAIR      56  48  72 NW14      29.78R
WADENA         SUNNY     54  48  82 NW13      29.73S
GLENWOOD       SUNNY     57  48  72 W8G20     29.78R
APPLETON       SUNNY     61  46  59 NW8       29.80R
BENSON         SUNNY     61  48  63 N10       29.81R
ORTONVILLE     SUNNY     63  46  55 W6        29.80S
MADISON        PTSUNNY   63  48  59 NW6       29.82R
WILLMAR        FAIR      59  48  67 NW13      29.81R
$$
MNZ033>034-036-042>043-049>051-058-059-281500-
   Central Minnesota

CITY           SKY/WX    TMP DP  RH WIND       PRES   REMARKS
ST CLOUD       MOSUNNY   57  48  72 NW18      29.74S
SAUK CENTRE    FAIR      57  47  70 NW13      29.77S
PAYNESVILLE    SUNNY     58  46  64 W12G17    29.78S
AITKIN         CLOUDY    52  46  82 W8        29.69S
PINE RIVER     CLOUDY    54  48  82 NW6       29.75R
BRAINERD       MOSUNNY   54  47  77 NW9G18    29.72S
STAPLES        PTSUNNY   54  46  76 W15G21    29.73R
LONG PRAIRIE   FAIR      54  46  76 W10G17    29.76S
LITTLE FALLS   MOSUNNY   55  45  67 W13       29.74S
LITCHFIELD     SUNNY     61  48  63 W14G22    29.78S
BUFFALO        SUNNY     59  45  59 W14G23    29.76S
MAPLE LAKE     SUNNY     59  48  67 W12G20    29.76S
HUTCHINSON     PTSUNNY   61  48  62 W18G25    29.79S
$$
MNZ037-044-045-052-053-281500-
   East Central Minnesota

CITY           SKY/WX    TMP DP  RH WIND       PRES   REMARKS
PRINCETON      SUNNY     61  48  63 W12G22    29.73R
MORA           MOSUNNY   55  45  67 W14       29.72R
CAMBRIDGE      MOSUNNY   61  46  59 W8G16     29.71R
RUSH CITY      SUNNY     59  49  68 W8        29.71R
MOOSE LAKE     CLOUDY    55  48  76 W7G16     29.67R
HINCKLEY       FAIR      59  48  67 W8G16     29.69S
CLOQUET        CLOUDY    55  50  82 W3        29.67S
MCGREGOR       CLOUDY    54  46  76 W7G16     29.70R
$$
MNZ071>073-080-081-089-090-097-098-281500-
   Southwest Minnesota

CITY           SKY/WX    TMP DP  RH WIND       PRES   REMARKS
MONTEVIDEO     SUNNY     63  48  59 NW8       29.82R
CANBY          MOSUNNY   62  46  54 CALM      29.84R
MARSHALL       SUNNY     61  45  55 NW13      29.83F
REDWOOD FALLS  SUNNY     62  46  55 NW10      29.81S
OLIVIA         SUNNY     61  45  55 NW15G21   29.79S
PIPESTONE      SUNNY     59  43  55 NW5       29.85S
WINDOM         SUNNY     63  45  51 NW12      29.84R
WORTHINGTON    MOSUNNY   62  44  51 NW12      29.86R
JACKSON        SUNNY     61  45  55 N10G18    29.85R
TRACY          SUNNY     61  47  59 NW12      29.84S
SLAYTON        SUNNY     58  45  61 NW12      29.84F
$$
MNZ065>067-074>077-082>085-091>093-281500-
   South Central Minnesota

CITY           SKY/WX    TMP DP  RH WIND       PRES   REMARKS
MANKATO          N/A     60  45  57 NW18G24   29.80S
NEW ULM        SUNNY     61  45  55 NW13G20   29.80S
ST JAMES       SUNNY     61  46  59 NW15      29.83S
FAIRMONT       SUNNY     63  42  46 NW17      29.83R
GLENCOE        SUNNY     61  50  67 W15       29.78R
FARIBAULT      SUNNY     63  46  55 W15       29.78S
OWATONNA       SUNNY     63  45  51 W16       29.79R
WASECA         SUNNY     63  45  51 W18       29.81S
ALBERT LEA     SUNNY     64  50  59 NW9       29.80R
$$
MNZ078>079-086>088-094>096-281500-
   Southeast Minnesota

CITY           SKY/WX    TMP DP  RH WIND       PRES   REMARKS
ROCHESTER      SUNNY     63  52  67 W16       29.79R
RED WING       SUNNY     64  48  55 W15       29.73R
STANTON        SUNNY     63  48  57 W17G24    29.75R
DODGE CENTER   SUNNY     61  48  63 W17G24    29.78R
WINONA         SUNNY     66  54  63 W7        29.75S
AUSTIN         SUNNY     63  50  63 W14       29.79S
PRESTON        SUNNY     63  51  67 W17       29.79R
$$
ABBREVIATIONS USED IN REMARKS
   TC - TEMPERATURES IN CELSIUS
  WCI - WIND CHILL INDEX
   HX - HEAT INDEX
  VSB - VISIBILITY
$$



USA.gov is the U.S. government's official web portal to all federal, state and local government web resources and services.